Location: Unspecified
(0.0000°N, 0.0000°E)
Time: 20:03:01
(UTC+01:00)

HO-68 - Visible Passes

Search period start: 21 November 2014 00:00
Search period end: 01 December 2014 00:00
Orbit: 1193 x 1204 km, 100.2° (Epoch: 20 November)

Date Brightness Start Highest point End Pass type
(mag) Time Alt. Az. Time Alt. Az. Time Alt. Az.
21 Nov ? 22:27:29 10° SSW 22:28:07 13° SSW 22:28:07 13° SSW visible
22 Nov ? 22:10:08 10° S 22:11:04 14° S 22:11:04 14° S visible
23 Nov ? 21:53:02 10° S 21:54:02 15° S 21:54:02 15° S visible
24 Nov ? 21:36:08 10° SSE 21:36:58 14° SSE 21:36:58 14° SSE visible
25 Nov ? 21:19:27 10° SSE 21:19:55 12° SSE 21:19:55 12° SSE visible
26 Nov ? 22:51:53 10° SSW 22:52:20 11° SSW 22:52:20 11° SSW visible
27 Nov ? 22:34:05 10° SSW 22:35:17 15° SSW 22:35:17 15° SSW visible
28 Nov ? 22:16:38 10° S 22:18:13 17° SSW 22:18:13 17° SSW visible
29 Nov ? 21:59:27 10° S 22:01:10 19° S 22:01:10 19° S visible
30 Nov ? 21:42:28 10° SSE 21:44:06 19° SSE 21:44:06 19° SSE visible
